Regional Weather Roundup
Issued by NWS

Home | Current Version | Previous Version | Graphics & Text | Print | Product List | Glossary On
Versions: 1 2 3 4 5 6 7 8 9 10 11 12 13 14 15 16 17 18 19 20 21 22 23 24 25 26 27 28 29 30 31 32 33 34 35 36 37 38 39 40 41 42 43 44 45 46 47 48 49 50
000
ASUS43 KLOT 190308
RWRIL

ILLINOIS REGIONAL WEATHER ROUNDUP
NATIONAL WEATHER SERVICE CHICAGO/ROMEOVILLE IL
1000 PM CDT FRI AUG 18 2017

NOTE: "FAIR" INDICATES FEW OR NO CLOUDS BELOW 12,000 FEET WITH NO
SIGNIFICANT WEATHER AND/OR OBSTRUCTIONS TO VISIBILITY.

* THESE STATIONS ARE NOT UNDER NWS QUALITY CONTROL. THEY ALSO MAY NOT
  REPORT WEATHER SUCH AS PRECIPITATION OR FOG.

ILZ001-002-007-009-015-016-024-190400-
NORTHWEST ILLINOIS

CITY           SKY/WX    TMP DP  RH WIND       PRES   REMARKS
MOLINE         FAIR      74  60  61 N3        29.89S
STERLING*      CLOUDY    71  63  75 N5        29.90S
SAVANNA*       FAIR      68  62  80 CALM      29.91S
$$

ILZ003-004-008-010-011-017-018-190400-
NORTH CENTRAL ILLINOIS

CITY           SKY/WX    TMP DP  RH WIND       PRES   REMARKS
ROCKFORD       FAIR      67  60  78 N6        29.91S
FREEPORT*      FAIR      62  59  90 NW3       29.94R
ROCHELLE*      FAIR      68  62  81 CALM      29.91S
DE KALB*       MOCLDY    68  63  83 NW3       29.91S
PERU*          MOCLDY    73  62  68 N7        29.90S
$$

ILZ005-006-012>014-019>023-190400-
NORTHEAST ILLINOIS

CITY           SKY/WX    TMP DP  RH WIND       PRES   REMARKS
CHICAGO-OHARE  MOCLDY    74  61  63 W6        29.88R
CHICAGO-MIDWAY MOCLDY    76  61  59 W6        29.88R
AURORA         MOCLDY    69  64  84 W5        29.90R
LANSING*       FAIR      70  60  70 CALM      29.89S
JOLIET*        CLOUDY    74  66  77 CALM      29.89S
WAUKEGAN       FAIR      69  61  75 VRB3      29.88R
DUPAGE AIRPORT MOCLDY    70  63  78 W3        29.88S
KANKAKEE*      FAIR      70  64  83 CALM      29.90S
WHEELING       MOCLDY    73  64  73 NW8       29.89R
MORRIS*        CLOUDY    71  66  84 CALM      29.88S
ROMEOVILLE*    CLOUDY    70  62  74 SW3       29.89S
NORTHERLY ISL    N/A     76  59  55 SW9         N/A
$$

LMZ740>746-190400-
SOUTHERN LAKE MICHIGAN

STATION/POSITION SKY/WX   TEMP    WIND        PRES    VSBY  WAVE
                          AIR SEA DIR/SP/G                  HT/PER
                          (F)     (DEG/KT/KT) (MB)    (MI)  (FT/S)
SOUTHERN BUOY              71 71  190/  6/  8 1011.1R         1/ 4
WILMETTE HARBOR            74 73  270/  6/ 10   N/A           1/ 2
HARRISON CRIB              78     270/ 15/ 16   N/A
CALUMET HARBOR             76     260/  2/  3 1011.4R
BURNS HARBOR               74      CALM  /  1 1012.5R
MICHIGAN CITY              72     130/  4/  4   N/A
MICHIGAN CITY 6N           73 74  160/  4/  4   N/A           2/ 5
ST. JOSEPH                 72 74  190/  4/  6 1011.6          2/ 5
$$

ILZ025>027-034>036-040-047-049-050-058-095>099-190400-
WEST-CENTRAL ILLINOIS

CITY           SKY/WX    TMP DP  RH WIND       PRES   REMARKS
QUINCY         FAIR      74  64  71 SW3       29.90R
GALESBURG*     FAIR      65  65 100 CALM      29.91F FOG
MACOMB*        FAIR      69  67  93 S3        29.92S
JACKSONVILLE*  FAIR      74  66  76 SW3       29.91S
PITTSFIELD*    FAIR      75  65  70 SW6       29.92R
$$

ILZ028>032-037-038-041>044-048-051>054-059>061-190400-
CENTRAL ILLINOIS

CITY           SKY/WX    TMP DP  RH WIND       PRES   REMARKS
PONTIAC        MOCLDY    71  70  98 CALM      29.90F
BLOOMINGTON    TSTM      65  62  90 SW33G45   29.94R FOG
DECATUR        FAIR      73  66  78 SW6       29.92R
PEORIA         FAIR      70  67  90 SW6       29.91R
LACON*         MOCLDY    71  69  93 CALM      29.88S
LINCOLN*       MOCLDY    74  67  80 SW5       29.93R
SPRINGFIELD    LGT RAIN  74  69  85 W6        29.92R
TAYLORVILLE    FAIR      70  66  87 SW6       29.93R
$$

ILZ033-039-045-046-055>057-062-063-190400-
EAST-CENTRAL ILLINOIS

CITY           SKY/WX    TMP DP  RH WIND       PRES   REMARKS
CHAMPAIGN      FAIR      68  65  90 SW5       29.93R
RANTOUL*       MOCLDY    73  67  84 SW5       29.91S
MATTOON        FAIR      74  67  78 SW5       29.92S
PARIS*         FAIR      68  65  88 SW7       29.94R
$$

ILZ079-100>102-190400-
SOUTHWEST ILLINOIS

CITY           SKY/WX    TMP DP  RH WIND       PRES   REMARKS
ALTON          MOCLDY    72  66  83 SW6       29.94S
BELLEVILLE     FAIR      74  68  83 CALM      29.96R
CAHOKIA*       FAIR      73  66  78 CALM      29.94R
SPARTA*        FAIR      78  68  72 S5        29.96S HX  80
$$

ILZ064>066-069>071-074>076-080>082-084>086-088>090-092>094-190400-
SOUTH-CENTRAL ILLINOIS

CITY           SKY/WX    TMP DP  RH WIND       PRES   REMARKS
CARBONDALE     FAIR      74  70  87 S3        29.95R
CAIRO*         FAIR      74  70  89 CALM      29.97R
EFFINGHAM*     FAIR      76  67  73 SW6       29.96R
MARION         FAIR      75  72  88 S3        29.96S
MT. VERNON       N/A     75  68  78 CALM      29.95S
CENTRALIA*     FAIR      76  68  77 W3        29.95R
SALEM*         FAIR      76  67  75 CALM      29.96R
METROPOLIS*    FAIR      75  67  77 CALM      29.97R
$$

ILZ067-068-072-073-078-083-087-091-190400-
SOUTHEAST ILLINOIS

CITY           SKY/WX    TMP DP  RH WIND       PRES   REMARKS
LAWRENCEVILLE  FAIR      74  65  73 SW5       29.95R
FLORA*         FAIR      76  68  77 W6        29.95R
FAIRFIELD*     FAIR      75  67  75 CALM      29.94S
HARRISBURG*    FAIR      73  69  88 CALM      29.96S
ROBINSON*      FAIR      71  65  82 SW6       29.94R
CARMI*         FAIR      73  67  83 SW7       29.94F
$$

ABBREVIATIONS USED IN REMARKS
   TC - TEMPERATURE IN CELSIUS
  WCI - WIND CHILL INDEX
   HX - HEAT INDEX
  VSB - VISIBILITY
$$





USA.gov is the U.S. government's official web portal to all federal, state and local government web resources and services.